Location: Tehachapi Municipal Airport
(35.1300°N, 118.4400°W)
Time: 16:17:16
(UTC-08:00)

Daily predictions for brighter satellites

Satellite Brightness Start Highest point End
(mag) Time Altitude Azimuth Time Altitude Azimuth Time Altitude Azimuth
BREEZE-M DEB (TANK) 4.1 18:12:37 10° N 18:14:16 14° NE 18:16:40 10° ENE
Gbstr 26 Del rocket 2.6 18:10:58 10° SW 18:14:56 75° SE 18:18:39 10° NE
GPS 2-04 Rocket1 3.6 18:12:59 10° SW 18:16:58 40° SSE 18:21:00 10° E
Cosmos 1238 Rocket 3.4 18:15:48 10° NNE 18:18:06 20° E 18:20:27 10° SE
NOAA 12 4.2 18:13:36 10° SSE 18:18:46 57° ENE 18:24:00 10° N
Cosmos 2322 4.4 18:14:07 10° N 18:19:12 32° ENE 18:24:15 10° SE
H-2A R/B 4.3 18:22:34 10° ESE 18:24:49 16° ENE 18:27:06 10° NNE
Cosmos 1536 3.8 18:21:47 10° SE 18:25:05 25° E 18:28:23 10° NE
Cosmos 44 4.5 18:22:30 10° NW 18:26:36 41° WSW 18:30:37 10° S
Cosmos 1633 2.6 18:24:23 10° S 18:27:59 58° E 18:31:37 10° NNE
GEOS 3 Rocket 3.9 18:23:56 10° NE 18:29:03 51° ESE 18:34:10 10° SSW
Meteor 1-13 Rocket 4.4 18:23:58 10° N 18:29:21 48° ENE 18:34:47 10° SSE
METEOR-M 4.1 18:24:39 10° SSE 18:29:58 72° ENE 18:35:17 10° N
Cosmos 1812 3.9 18:28:47 10° NNW 18:32:30 47° W 18:36:11 10° SSW
Okean 1 3.4 18:28:48 10° N 18:32:53 83° W 18:36:56 10° S
BREEZE-M DEB (TANK) 3.3 18:25:30 10° NW 18:33:20 61° NNE 18:35:46 14° ESE
COSMOS 2428 3.9 18:30:05 10° N 18:34:29 22° ENE 18:37:44 14° E
Cosmos 1023 Rocket 4.4 18:29:27 10° S 18:34:30 75° ESE 18:39:38 10° NNE
Meteor 2-4 Rocket 4.2 18:32:58 10° N 18:37:57 34° ENE 18:42:48 10° SE
Cosmos 1536 Rocket 3.6 18:34:03 10° N 18:38:32 90° WSW 18:43:00 10° S
Cosmos 1741 Rocket 4.1 18:37:03 10° S 18:42:05 50° ESE 18:47:07 10° NNE
Cosmos 2219 3.3 18:46:20 10° S 18:51:56 56° ESE 18:57:32 10° NNE
Cosmos 2360 Rocket 2.1 18:48:02 10° NNW 18:53:42 72° ENE 18:59:20 10° SSE
Cosmos 2219 Rocket 3.6 18:51:18 10° NNE 18:55:06 18° ENE 18:55:22 18° ENE
Cosmos 1602 4.4 18:54:33 10° SSW 18:58:20 56° W 19:02:10 10° N
Cosmos 2227 Rocket 4.1 18:55:00 10° SE 18:55:24 11° SE 18:55:24 11° SE
Cosmos 1570 Rocket 4.2 18:55:59 10° N 19:01:00 46° ENE 19:04:49 17° SE
Abrixas rocket 2.1 18:57:56 10° SW 19:01:16 86° SE 19:02:26 38° NE
Meteor 1-11 Rocket 3.9 18:56:26 10° SSW 19:02:12 78° W 19:08:06 10° N
Resurs 01 Rocket 1.6 18:58:19 10° SSE 19:02:38 59° ENE 19:06:58 10° N
Cosmos 1300 Rocket 4.2 18:59:06 10° SSW 19:03:25 58° W 19:07:48 10° N
Cosmos 1140 Rocket 4.2 19:00:08 10° SSW 19:05:08 54° WNW 19:10:11 10° N
FREGAT/IRIS 4.4 19:05:36 10° SSW 19:08:26 35° W 19:11:19 10° NNW
DELTA 2 R/B (1) 3.5 19:03:53 10° WNW 19:09:31 87° SSW 19:12:19 31° ESE
ALOS 2.3 19:07:50 10° S 19:12:29 79° WSW 19:17:11 10° NNW
Cosmos 614 Rocket 4.4 19:07:38 10° SSW 19:12:40 62° WNW 19:17:41 10° N
Helios 1A 3.5 19:17:34 38° NE 19:17:34 38° NE 19:20:51 10° N
Cosmos 1340 4.5 19:14:50 10° NNW 19:18:15 33° W 19:21:39 10° SSW
Spot 2 Rocket 3.4 19:15:04 10° SSE 19:20:06 87° ENE 19:25:12 10° NNW
Resurs 1-3 3.4 19:15:48 10° SSE 19:20:10 79° ENE 19:24:34 10° N
Cosmos 2327 Rocket 4.4 19:15:25 10° S 19:21:36 78° E 19:27:54 10° N
OTV 4 2.8 19:23:08 10° SSW 19:24:05 16° SSW 19:24:05 16° SSW
Cosmos 2208 Rocket 3.9 19:22:44 10° NNW 19:28:12 77° ENE 19:31:09 28° SSE
Cosmos 2333 Rocket 3.3 19:24:31 10° N 19:28:17 26° NE 19:28:17 26° NE
Tiangong 2 2.9 19:27:57 10° W 19:30:32 24° SW 19:30:32 24° SW
Helios 1B rocket 2.3 19:30:51 38° NNE 19:32:23 83° ESE 19:36:30 10° S
Envisat 4.4 19:38:53 24° NNE 19:38:53 24° NNE 19:41:11 10° N
Genesis I 3.6 19:35:03 10° NNW 19:38:12 55° NNW 19:38:12 55° NNW
USA 229 DEB 3.9 19:33:40 10° NNW 19:40:41 55° NE 19:42:02 49° E
USA 229 3.9 19:33:47 10° NNW 19:40:47 55° NE 19:42:06 49° E
Cosmos 2074 Rocket 4.3 19:34:53 10° SSW 19:41:04 67° W 19:47:20 10° N
ATLAS 2A CENTAUR R/B 3.7 19:39:43 10° SW 19:43:01 26° S 19:44:17 24° SSE
Hubble Space Telescope 2.7 19:40:07 10° SW 19:42:10 20° SSW 19:42:10 20° SSW
Cosmos 2184 Rocket 4.3 19:37:56 10° SSW 19:44:13 66° W 19:50:27 10° N
CZ-2D R/B 4.4 19:54:14 42° WNW 19:54:14 42° WNW 19:57:27 10° NNW
GPS 2-04 Rocket1 3.8 19:52:24 10° W 19:55:32 47° W 19:55:32 47° W
Cosmos 1025 Rocket 4.3 19:56:59 10° NNW 20:01:06 40° W 20:02:48 28° SW
Nadezhda 3 Rocket 4.2 20:01:23 10° N 20:06:14 57° NNE 20:06:14 57° NNE
Atlas Centaur 2 4.3 20:06:32 10° SSW 20:08:55 17° S 20:08:55 17° S
Cosmos 2154 Rocket 4.1 20:06:50 10° S 20:13:09 75° W 20:19:32 10° N
Cosmos 2285 Rocket 4.2 20:10:26 10° NNW 20:16:49 66° WSW 20:17:45 59° SSW
COSMOS 2428 3.6 20:13:32 10° NW 20:18:56 46° WSW 20:19:51 42° SW
Cosmos 2237 Rocket 3.8 20:17:17 10° NNW 20:19:36 25° N 20:19:36 25° N
H-2A R/B 4.1 20:29:25 10° SW 21:08:04 12° E 21:14:50 10° E
H-2A R/B 4.1 20:29:25 10° SW 21:08:05 12° E 21:14:50 10° E
H-2A R/B 4.1 20:29:25 10° SW 21:08:04 12° E 21:14:49 10° E
H-2A R/B 4.1 20:29:24 10° SW 21:08:04 12° E 21:14:50 10° E
Cosmos 2219 Rocket 3.6 20:33:55 10° NNW 20:37:08 34° NW 20:37:08 34° NW
Cosmos 2227 Rocket 4.4 20:36:25 10° SW 20:37:22 15° SW 20:37:22 15° SW
CZ-3 Stage 3 4.5 20:51:57 10° WSW 21:10:20 41° SSW 21:10:20 41° SSW
Cosmos 2333 Rocket 4.5 21:08:31 10° NW 21:10:20 19° NW 21:10:20 19° NW
